Terminal Aerodrome Forecast
Issued by NWS Quad Cities IA IL

Home | Current Version | Previous Version | Text Only | Print | Product List | Glossary On
Versions: 1 2 3 4 5 6 7 8 9 10 11 12 13
000
FTUS43 KDVN 080500
TAFDBQ
TAF
KDBQ 080520Z 0806/0906 22003KT P6SM FEW040 SCT250
     FM080800 30010KT P6SM SCT030 BKN120
     FM081400 31014G22KT P6SM SCT050
     FM090100 29005KT P6SM SCT250=

USA.gov is the U.S. government's official web portal to all federal, state and local government web resources and services.